When you browse on this site, cookies collect data to enhance your experience and personalize the content and advertising you see.
Visit our Privacy Policy to learn more. By continuing to use the site, you agree to this use of cookies and data.
  • în România
  • Lista ţărilor
  • Pe 7 zile
  • Temperatura apei
  • Meteo pe hartă
  • Widget-uri
  • user-avatar
    Intrare

    Meteo pe oră la Uige

    Astăzi, 18 Noiembrie, Luni

    Timp Temperatura Precipitaţii Vânt Presiune Umiditate
    00:00 +22°C° 0 mm 1 m/s 690 mmHg 97%
    01:00 +20°C° 0 mm 0 m/s 689 mmHg 98%
    02:00 +20°C° 0 mm 0 m/s 689 mmHg 98%
    03:00 +20°C° 0 mm 0 m/s 689 mmHg 98%
    04:00 +20°C° 0 mm 0 m/s 689 mmHg 98%
    05:00 +20°C° 0 mm 0 m/s 689 mmHg 97%
    06:00 +20°C° 0 mm 0 m/s 690 mmHg 97%
    07:00 +20°C° 0 mm 0 m/s 690 mmHg 97%
    08:00 +23°C° 0 mm 1 m/s 691 mmHg 94%
    09:00 +23°C° 0 mm 1 m/s 691 mmHg 91%
    10:00 +24°C° 0 mm 1 m/s 691 mmHg 89%
    11:00 +24°C° 0.2 mm 2 m/s 691 mmHg 87%
    12:00 +25°C° 0.2 mm 2 m/s 690 mmHg 86%
    13:00 +25°C° 0.2 mm 3 m/s 690 mmHg 84%
    14:00 +25°C° 1 mm 2 m/s 690 mmHg 88%
    15:00 +24°C° 1 mm 2 m/s 689 mmHg 92%
    16:00 +24°C° 1 mm 2 m/s 689 mmHg 95%
    17:00 +23°C° 0.6 mm 2 m/s 689 mmHg 96%
    18:00 +22°C° 0.6 mm 1 m/s 689 mmHg 97%
    19:00 +20°C° 0.6 mm 0 m/s 690 mmHg 98%
    20:00 +20°C° 0 mm 0 m/s 690 mmHg 98%
    21:00 +19°C° 0 mm 0 m/s 690 mmHg 99%
    22:00 +19°C° 0 mm 0 m/s 691 mmHg 99%
    23:00 +21°C° 0 mm 1 m/s 690 mmHg 99%

    Mâine, 19 Noiembrie, Marţi

    Timp Temperatura Precipitaţii Vânt Presiune Umiditate
    00:00 +21°C° 0 mm 1 m/s 690 mmHg 99%
    01:00 +21°C° 0 mm 1 m/s 690 mmHg 99%
    02:00 +21°C° 0 mm 1 m/s 690 mmHg 99%
    03:00 +21°C° 0 mm 1 m/s 689 mmHg 99%
    04:00 +21°C° 0 mm 1 m/s 689 mmHg 99%
    05:00 +20°C° 0 mm 0 m/s 690 mmHg 97%
    06:00 +20°C° 0 mm 0 m/s 690 mmHg 96%
    07:00 +21°C° 0 mm 0 m/s 691 mmHg 95%
    08:00 +22°C° 0 mm 0 m/s 691 mmHg 85%
    09:00 +26°C° 0 mm 1 m/s 691 mmHg 76%
    10:00 +28°C° 0 mm 1 m/s 692 mmHg 66%
    11:00 +28°C° 0 mm 1 m/s 691 mmHg 65%
    12:00 +29°C° 0 mm 1 m/s 691 mmHg 63%
    13:00 +29°C° 0 mm 1 m/s 690 mmHg 61%
    14:00 +28°C° 0.1 mm 1 m/s 690 mmHg 65%
    15:00 +28°C° 0.1 mm 1 m/s 689 mmHg 70%
    16:00 +27°C° 0.1 mm 2 m/s 688 mmHg 74%
    17:00 +26°C° 0.1 mm 1 m/s 689 mmHg 79%
    18:00 +24°C° 0.1 mm 1 m/s 689 mmHg 85%
    19:00 +21°C° 0.1 mm 0 m/s 690 mmHg 90%
    20:00 +21°C° 0 mm 0 m/s 690 mmHg 91%
    21:00 +20°C° 0 mm 0 m/s 690 mmHg 91%
    22:00 +20°C° 0 mm 0 m/s 690 mmHg 92%
    23:00 +20°C° 0 mm 0 m/s 690 mmHg 93%

    Poimâine, 20 Noiembrie, Miercuri

    Timp Temperatura Precipitaţii Vânt Presiune Umiditate
    00:00 +19°C° 0 mm 0 m/s 690 mmHg 95%
    01:00 +19°C° 0 mm 0 m/s 689 mmHg 97%
    02:00 +19°C° 0 mm 0 m/s 689 mmHg 97%
    03:00 +19°C° 0 mm 0 m/s 689 mmHg 98%
    04:00 +19°C° 0 mm 0 m/s 689 mmHg 98%
    05:00 +19°C° 0 mm 0 m/s 689 mmHg 96%
    06:00 +20°C° 0 mm 0 m/s 690 mmHg 95%
    07:00 +21°C° 0 mm 0 m/s 691 mmHg 93%
    08:00 +23°C° 0.1 mm 0 m/s 691 mmHg 86%
    09:00 +26°C° 0.1 mm 1 m/s 692 mmHg 78%
    10:00 +28°C° 0.1 mm 1 m/s 692 mmHg 71%
    11:00 +28°C° 0.7 mm 1 m/s 691 mmHg 75%
    12:00 +27°C° 0.7 mm 2 m/s 690 mmHg 80%
    13:00 +27°C° 0.7 mm 2 m/s 689 mmHg 84%
    14:00 +27°C° 0.7 mm 2 m/s 689 mmHg 85%
    15:00 +26°C° 0.7 mm 2 m/s 688 mmHg 87%
    16:00 +26°C° 0.7 mm 2 m/s 688 mmHg 88%
    17:00 +25°C° 0.2 mm 1 m/s 688 mmHg 91%
    18:00 +23°C° 0.2 mm 1 m/s 689 mmHg 94%
    19:00 +20°C° 0.2 mm 0 m/s 689 mmHg 97%
    20:00 +20°C° 0 mm 0 m/s 690 mmHg 97%
    21:00 +20°C° 0 mm 0 m/s 690 mmHg 97%
    22:00 +19°C° 0 mm 0 m/s 691 mmHg 97%
    23:00 +19°C° 0 mm 0 m/s 690 mmHg 98%

    21 Noiembrie, Joi

    Timp Temperatura Precipitaţii Vânt Presiune Umiditate
    00:00 +19°C° 0 mm 0 m/s 690 mmHg 98%
    01:00 +19°C° 0 mm 0 m/s 690 mmHg 98%
    02:00 +19°C° 0 mm 0 m/s 690 mmHg 99%
    03:00 +19°C° 0 mm 0 m/s 689 mmHg 99%
    04:00 +19°C° 0 mm 0 m/s 689 mmHg 99%
    05:00 +20°C° 0 mm 0 m/s 690 mmHg 98%
    06:00 +20°C° 0 mm 0 m/s 690 mmHg 98%
    07:00 +20°C° 0 mm 0 m/s 691 mmHg 97%
    08:00 +21°C° 0 mm 0 m/s 691 mmHg 94%
    09:00 +22°C° 0 mm 0 m/s 691 mmHg 90%
    10:00 +22°C° 0 mm 0 m/s 691 mmHg 86%
    11:00 +25°C° 0 mm 1 m/s 691 mmHg 83%
    12:00 +25°C° 0 mm 1 m/s 690 mmHg 80%
    13:00 +26°C° 0 mm 1 m/s 690 mmHg 77%
    14:00 +26°C° 0.1 mm 1 m/s 689 mmHg 77%
    15:00 +26°C° 0.1 mm 2 m/s 689 mmHg 76%
    16:00 +26°C° 0.1 mm 2 m/s 689 mmHg 75%
    17:00 +24°C° 0 mm 1 m/s 689 mmHg 80%
    18:00 +23°C° 0 mm 1 m/s 690 mmHg 85%
    19:00 +20°C° 0 mm 0 m/s 690 mmHg 90%
    20:00 +20°C° 0 mm 0 m/s 690 mmHg 89%
    21:00 +20°C° 0 mm 0 m/s 691 mmHg 89%
    22:00 +20°C° 0 mm 0 m/s 691 mmHg 88%
    23:00 +19°C° 0 mm 0 m/s 691 mmHg 89%

    22 Noiembrie, Vineri

    Timp Temperatura Precipitaţii Vânt Presiune Umiditate
    00:00 +19°C° 0 mm 0 m/s 690 mmHg 89%
    01:00 +19°C° 0 mm 0 m/s 690 mmHg 89%
    02:00 +19°C° 0 mm 0 m/s 690 mmHg 89%
    03:00 +18°C° 0 mm 0 m/s 690 mmHg 90%
    04:00 +18°C° 0 mm 0 m/s 690 mmHg 90%
    05:00 +19°C° 0 mm 0 m/s 690 mmHg 89%
    06:00 +19°C° 0 mm 0 m/s 691 mmHg 88%
    07:00 +19°C° 0 mm 0 m/s 691 mmHg 87%
    08:00 +21°C° 0 mm 0 m/s 692 mmHg 80%
    09:00 +23°C° 0 mm 0 m/s 692 mmHg 73%
    10:00 +24°C° 0 mm 0 m/s 693 mmHg 66%
    11:00 +27°C° 0 mm 1 m/s 692 mmHg 63%
    12:00 +28°C° 0 mm 1 m/s 692 mmHg 61%
    13:00 +28°C° 0 mm 1 m/s 691 mmHg 58%
    14:00 +27°C° 0.2 mm 1 m/s 691 mmHg 65%
    15:00 +27°C° 0.2 mm 1 m/s 690 mmHg 71%
    16:00 +26°C° 0.2 mm 1 m/s 689 mmHg 78%
    17:00 +24°C° 0 mm 1 m/s 689 mmHg 82%
    18:00 +23°C° 0 mm 1 m/s 690 mmHg 87%
    19:00 +20°C° 0 mm 0 m/s 690 mmHg 91%
    20:00 +19°C° 0 mm 0 m/s 690 mmHg 92%
    21:00 +19°C° 0 mm 0 m/s 691 mmHg 93%
    22:00 +18°C° 0 mm 0 m/s 691 mmHg 94%
    23:00 +18°C° 0 mm 0 m/s 691 mmHg 94%

    23 Noiembrie, Sâmbătă

    Timp Temperatura Precipitaţii Vânt Presiune Umiditate
    00:00 +18°C° 0 mm 0 m/s 691 mmHg 95%
    01:00 +18°C° 0 mm 0 m/s 690 mmHg 96%
    02:00 +18°C° 0 mm 0 m/s 690 mmHg 96%
    03:00 +18°C° 0 mm 0 m/s 690 mmHg 96%
    04:00 +18°C° 0 mm 0 m/s 690 mmHg 97%
    05:00 +18°C° 0 mm 0 m/s 690 mmHg 95%
    06:00 +19°C° 0 mm 0 m/s 690 mmHg 94%
    07:00 +19°C° 0 mm 0 m/s 691 mmHg 92%
    08:00 +21°C° 0 mm 0 m/s 691 mmHg 84%
    09:00 +25°C° 0 mm 1 m/s 692 mmHg 76%
    10:00 +26°C° 0 mm 1 m/s 692 mmHg 68%
    11:00 +27°C° 0 mm 1 m/s 691 mmHg 64%
    12:00 +29°C° 0 mm 1 m/s 691 mmHg 59%
    13:00 +30°C° 0 mm 1 m/s 691 mmHg 54%
    14:00 +29°C° 0.1 mm 1 m/s 690 mmHg 59%
    15:00 +28°C° 0.1 mm 1 m/s 690 mmHg 64%
    16:00 +28°C° 0.1 mm 1 m/s 689 mmHg 69%
    17:00 +26°C° 0.1 mm 1 m/s 689 mmHg 75%
    18:00 +24°C° 0.1 mm 1 m/s 689 mmHg 80%
    19:00 +23°C° 0.1 mm 1 m/s 690 mmHg 86%
    20:00 +20°C° 0 mm 0 m/s 690 mmHg 87%
    21:00 +20°C° 0 mm 0 m/s 691 mmHg 88%
    22:00 +20°C° 0 mm 0 m/s 691 mmHg 89%
    23:00 +19°C° 0 mm 0 m/s 691 mmHg 91%
    Arată mai mult